Weather History for Mojave, CA

Change the Weather History Date:

Thursday, August 22, 2013

  Actual Average Record
Temperature  
Mean Temperature 86 °F -  
Max Temperature 96 °F 93 °F 102 °F (1967)
Min Temperature 73 °F 63 °F 55 °F (1968)
Cooling Degree Days 20    
Growing Degree Days 36 (Base 50)    
Moisture  
Dew Point 35 °F    
Average Humidity 17    
Maximum Humidity 32    
Minimum Humidity 10    
Precipitation  
Precipitation 0.00 in - - ()
Sea Level Pressure  
Sea Level Pressure 29.93 in    
Wind  
Wind Speed 17 mph (SW)    
Max Wind Speed 25 mph    
Max Gust Speed 32 mph    
Visibility 10 miles    
Events      
Averages and records for this station are not official NWS values.
T = Trace of Precipitation, MM = Missing Value Source: NWS Daily Summary

Daily Weather History Graph

Daily Weather History Graph

Search for Another Location

Airport:

Trip Planner

Search our weather history database for the weather conditions in past years. The results will help you decide how hot, cold, wet, or windy it might be!

Date:

Astronomy

Aug. 22, 2013 Rise Set
Actual Time 6:18 AM PDT 7:32 PM PDT
Civil Twilight 5:51 AM PDT 7:58 PM PDT
Nautical Twilight 5:20 AM PDT 8:29 PM PDT
Astronomical Twilight 4:47 AM PDT 9:02 PM PDT
Moon 8:26 PM PDT (8/22) 8:05 AM PDT (8/22)
Length of Visible Light 14h 06m
Length of Day
13h 14m
Waning Gibbous, 96% of the Moon is Illuminated
Aug 22
Waning Gibbous
Aug 28
Last Quarter
Sep 5
New
Sep 12
First Quarter
Sep 19
Full

Hourly Weather History & Observations

Time (PDT) Temp. Dew Point Humidity Pressure Visibility Wind Dir Wind Speed Gust Speed Precip Events Conditions
1:55 PM 95.0 °F 33.8 °F 12% 29.97 in 10.0 mi SW 21.9 mph 28.8 mph N/A   Clear
2:15 PM 96.8 °F 33.8 °F 11% 29.96 in 10.0 mi SW 21.9 mph 28.8 mph N/A   Clear
2:35 PM 96.8 °F 33.8 °F 11% 29.95 in 10.0 mi SW 25.3 mph 29.9 mph N/A   Clear
2:55 PM 96.8 °F 33.8 °F 11% 29.95 in 10.0 mi SSW 23.0 mph 29.9 mph N/A   Clear
3:15 PM 96.8 °F 33.8 °F 11% 29.94 in 10.0 mi SW 20.7 mph 31.1 mph N/A   Clear
3:35 PM 95.0 °F 32.0 °F 11% 29.93 in 10.0 mi SW 20.7 mph 32.2 mph N/A   Clear
3:55 PM 95.0 °F 33.8 °F 12% 29.93 in 10.0 mi SW 18.4 mph 27.6 mph N/A   Clear
4:15 PM 95.0 °F 32.0 °F 11% 29.92 in 10.0 mi SW 15.0 mph 26.5 mph N/A   Clear
4:35 PM 95.0 °F 32.0 °F 11% 29.92 in 10.0 mi South 18.4 mph 23.0 mph N/A   Clear
4:55 PM 95.0 °F 32.0 °F 11% 29.91 in 10.0 mi SSW 19.6 mph - N/A   Clear
5:15 PM 95.0 °F 32.0 °F 11% 29.91 in 10.0 mi SW 19.6 mph 27.6 mph N/A   Clear
5:35 PM 95.0 °F 32.0 °F 11% 29.91 in 10.0 mi WSW 18.4 mph 25.3 mph N/A   Clear
5:55 PM 93.2 °F 32.0 °F 11% 29.90 in 10.0 mi SW 19.6 mph 25.3 mph N/A   Clear
6:15 PM 93.2 °F 32.0 °F 11% 29.90 in 10.0 mi SSW 15.0 mph 21.9 mph N/A   Clear
6:35 PM 91.4 °F 30.2 °F 11% 29.90 in 10.0 mi SW 17.3 mph 29.9 mph N/A   Clear
6:55 PM 91.4 °F 28.4 °F 10% 29.90 in 10.0 mi SSW 18.4 mph 24.2 mph N/A   Clear
7:15 PM 89.6 °F 26.6 °F 10% 29.91 in 10.0 mi SSW 16.1 mph 23.0 mph N/A   Clear
7:35 PM 87.8 °F 28.4 °F 12% 29.92 in 10.0 mi SSW 11.5 mph - N/A   Clear
7:55 PM 86.0 °F 28.4 °F 12% 29.92 in 10.0 mi SSW 11.5 mph - N/A   Clear
8:15 PM 84.2 °F 28.4 °F 13% 29.93 in 10.0 mi SW 9.2 mph - N/A   Clear
8:35 PM 82.4 °F 24.8 °F 12% 29.94 in 10.0 mi WSW 4.6 mph - N/A   Clear
8:55 PM 82.4 °F 39.2 °F 21% 29.95 in 10.0 mi SSW 3.5 mph - N/A   Clear
9:15 PM 80.6 °F 44.6 °F 28% 29.95 in 10.0 mi WSW 6.9 mph - N/A   Clear
9:35 PM 80.6 °F 44.6 °F 28% 29.95 in 10.0 mi WSW 9.2 mph - N/A   Clear
9:55 PM 78.8 °F 44.6 °F 30% 29.95 in 10.0 mi WSW 8.1 mph - N/A   Clear
10:15 PM 77.0 °F 44.6 °F 32% 29.95 in 10.0 mi SW 5.8 mph - N/A   Clear
10:35 PM 77.0 °F 42.8 °F 29% 29.96 in 10.0 mi South 4.6 mph - N/A   Clear
10:55 PM 75.2 °F 42.8 °F 31% 29.95 in 10.0 mi SW 4.6 mph - N/A   Clear
11:15 PM 75.2 °F 41.0 °F 29% 29.95 in 10.0 mi SSW 6.9 mph - N/A   Clear
11:35 PM 75.2 °F 41.0 °F 29% 29.95 in 10.0 mi SSW 6.9 mph - N/A   Clear
11:55 PM 73.4 °F 41.0 °F 31% 29.95 in 10.0 mi SW 8.1 mph - N/A   Clear